Location: Beuerbach
(48.1459°N, 10.9174°E)
Time: 19:00:58
(UTC+00:00)

Cosmos 2221 Rocket - Pass Details

Date: 23 May 2024
Orbit: 617 x 646 km, 82.5° (Epoch: 24 June)

Event Time Altitude Azimuth Distance (km) Brightness Sun altitude
Exits shadow 02:28:31 - 189° (S) 2,453 6.1 -8.5°
Reaches altitude 10° 02:29:32 10° 190° (S) 2,041 5.7 -8.4°
Maximum altitude 02:34:05 86° 280° (W) 654 3.7 -7.8°
Drops below altitude 10° 02:38:39 10° 9° (N) 2,049 7.1 -7.3°
Sets 02:40:55 0° 10° (N) 2,960 8.0 -7.0°
